Home   Weather   Netherlands   Maastricht   Past weeks
Flag for Netherlands

Past Weather in Maastricht, Netherlands — Yesterday and Last 2 Weeks

Currently: 63 °F. Clear. (Weather station: Maastricht Airport Zuid Limburg, Netherlands). See more current weather

Past Weather in Maastricht — Graph

°F

Maastricht Temperature Yesterday

Maximum temperature yesterday: 66 °F (at 5:25 pm)
Minimum temperature yesterday: 55 °F (at 11:25 pm)
Average temperature yesterday: 59 °F

High & Low Weather Summary for the Past Weeks

 TemperatureHumidityPressure
High81 °F (Jul 25, 4:25 pm)100% (Jul 25, 5:25 am)30.21 "Hg (Jul 25, 5:25 am)
Low54 °F (Jul 20, 5:25 am)44% (Jul 21, 3:55 pm)29.71 "Hg (Jul 30, 3:55 pm)
Average64 °F76%29.93 "Hg
* Reported Jul 19 8:25 pm — Aug 3 8:25 pm, Maastricht. Weather by CustomWeather, © 2021

Note: Actual official high and low records may vary slightly from our data, if they occured in-between our weather recording intervals... More about our weather records

Maastricht Weather History for the Previous 24 Hours

Scroll right to see more
 ConditionsComfort  
Time TempWeatherWind HumidityBarometerVisibility
8:25 pm
Tue, Aug 3
63 °FClear.2 mph73%29.92 "HgN/A
7:55 pm63 °FPartly sunny.3 mph77%29.92 "HgN/A
7:25 pm64 °FPassing clouds.5 mph73%29.89 "HgN/A
6:55 pm64 °FPassing clouds.5 mph73%29.89 "HgN/A
6:25 pm64 °FPassing clouds.6 mph73%29.89 "HgN/A
5:55 pm64 °FClear.3 mph73%29.92 "HgN/A
5:25 pm64 °FClear.8 mph73%29.89 "HgN/A
4:55 pm64 °FPartly sunny.7 mph78%29.92 "HgN/A
4:25 pm63 °FMore clouds than sun.8 mph77%29.92 "HgN/A
3:55 pm61 °FPartly sunny.9 mph88%29.92 "HgN/A
3:25 pm61 °FMostly cloudy.7 mph88%29.92 "HgN/A
2:55 pm59 °FMostly cloudy.7 mph88%29.92 "Hg3 mi
2:25 pm59 °FBroken clouds.9 mph94%29.92 "Hg4 mi
1:55 pm59 °FFog.9 mph94%29.92 "Hg3 mi
1:25 pm57 °FFog.8 mph100%29.92 "Hg2 mi
12:55 pm59 °FLight rain. Broken clouds.6 mph94%29.92 "Hg2 mi
12:25 pm57 °FDrizzle. Broken clouds.5 mph94%29.92 "Hg2 mi
11:55 am59 °FDrizzle. Broken clouds.6 mph88%29.92 "Hg4 mi
11:25 am59 °FMostly cloudy.3 mph88%29.92 "Hg5 mi
10:55 am59 °FBroken clouds.2 mph88%29.92 "HgN/A
10:25 am57 °FBroken clouds.5 mph94%29.92 "HgN/A
9:55 am57 °FLight rain. Broken clouds.3 mph94%29.92 "Hg5 mi
9:25 am57 °FLight rain. Broken clouds.5 mph94%29.92 "Hg3 mi
8:55 am57 °FDrizzle. More clouds than sun.3 mph94%29.92 "Hg2 mi
8:25 am57 °FDrizzle. Overcast.3 mph94%29.92 "Hg4 mi
7:55 am55 °FRain. Mostly cloudy.3 mph100%29.92 "Hg3 mi
7:25 am55 °FRain. Passing clouds.6 mph94%29.95 "Hg4 mi
6:55 am55 °FClear.2 mph94%29.92 "HgN/A
6:25 am55 °FLight rain. Clear.3 mph100%29.92 "Hg5 mi
5:55 am55 °FClear.2 mph94%29.92 "HgN/A
5:25 am55 °FClear.1 mph94%29.92 "HgN/A
4:55 am55 °FClear.2 mph100%29.92 "Hg6 mi
4:25 am55 °FClear.2 mph100%29.95 "HgN/A
3:55 am55 °FLight rain. Partly cloudy.1 mph94%29.95 "Hg6 mi
3:25 am55 °FPartly cloudy.1 mph94%29.95 "HgN/A
2:55 am55 °FPassing clouds.5 mph94%29.95 "HgN/A
1:25 am55 °FClear.3 mph88%29.95 "HgN/A
12:55 am57 °FClear.3 mph82%29.98 "HgN/A
12:25 am57 °FClear.5 mph82%29.98 "HgN/A
11:55 pm
Mon, Aug 2
55 °FClear.3 mph88%29.98 "HgN/A
11:25 pm55 °FClear.3 mph88%29.98 "HgN/A
10:55 pm57 °FClear.3 mph82%29.98 "HgN/A
10:25 pm57 °FClear.5 mph88%29.98 "HgN/A
9:55 pm57 °FClear.5 mph88%29.98 "HgN/A
9:25 pm59 °FCool.3 mph82%29.98 "HgN/A
Weather by CustomWeather, © 2021

See weather overview